DW6218 Weather Reports


time (UTC)temp
C
wind
direction
speed
KPH
gust
KPH
rain 1hr
cm
rain 24hr
cm
rain mn
cm
humidity
%
barometer
mb
20260906213024 36 84 0.0 1.6 0.00 0.00 0.00 29 1001.6
20260906211534 36 76 0.0 0.0 0.00 0.00 0.00 29 1001.7
20260906210017 35 74 0.0 1.6 0.00 0.00 0.00 32 1001.8
20260906204526 35 74 0.0 3.2 0.00 0.00 0.00 31 1002.0
20260906203010 34 71 0.0 0.0 0.00 0.00 0.00 33 1002.2
20260906201510 35 72 0.0 1.6 0.00 0.00 0.00 32 1002.4
20260906200007 34 67 0.0 6.4 0.00 0.00 0.00 35 1002.6
20260906194503 33 61 0.0 6.4 0.00 0.00 0.00 34 1002.6
20260906193114 33 58 0.0 4.8 0.00 0.00 0.00 35 1002.7
20260906191604 33 57 0.0 9.7 0.00 0.00 0.00 36 1002.9
20260906190054 33 51 0.0 0.0 0.00 0.00 0.00 36 1003.4
20260906184550 32 45 0.0 0.0 0.00 0.00 0.00 38 1003.6
20260906183046 32 43 0.0 0.0 0.00 0.00 0.00 39 1004.0
20260906181603 31 36 0.0 0.0 0.00 0.00 0.00 42 1004.1
20260906180037 30 36 0.0 0.0 0.00 0.00 0.00 45 1004.4
20260906174536 29 32 0.0 3.2 0.00 0.00 0.00 46 1004.6
20260906173029 28 32 0.0 0.0 0.00 0.00 0.00 48 1004.8
20260906171527 27 34 0.0 0.0 0.00 0.00 0.00 50 1005.4
20260906170022 27 34 0.0 0.0 0.00 0.00 0.00 52 1005.4
20260906164518 26 33 0.0 0.0 0.00 0.00 0.00 55 1005.4
20260906163014 25 33 0.0 3.2 0.00 0.00 0.00 57 1005.5
20260906161510 23 32 0.0 1.6 0.00 0.00 0.00 60 1005.7
20260906160005 22 19 0.0 0.0 0.00 0.00 0.00 63 1005.8
20260906154505 21 22 0.0 3.2 0.00 0.00 0.00 67 1005.8
20260906153101 20 23 0.0 0.0 0.00 0.00 0.00 70 1005.9
20260906151604 20 24 0.0 0.0 0.00 0.00 0.00 72 1006.1
20260906150057 19 24 0.0 0.0 0.00 0.00 0.00 75 1006.0
20260906144608 18 24 0.0 0.0 0.00 0.00 0.00 76 1006.1
20260906143101 18 24 0.0 4.8 0.00 0.00 0.00 77 1006.2
20260906141551 17 21 0.0 4.8 0.00 0.00 0.00 79 1006.1
20260906140049 17 21 0.0 3.2 0.00 0.00 0.00 80 1006.1
20260906134551 17 22 0.0 1.6 0.00 0.00 0.00 81 1006.0
20260906133103 17 44 0.0 0.0 0.00 0.00 0.00 82 1005.8
20260906131547 17 51 0.0 0.0 0.00 0.00 0.00 83 1005.8
20260906130058 17 58 0.0 0.0 0.00 0.00 0.00 83 1005.7
20260906124546 17 67 0.0 0.0 0.00 0.00 0.00 83 1005.6
20260906123043 17 74 0.0 0.0 0.00 0.00 0.00 82 1005.7
20260906121541 17 74 0.0 0.0 0.00 0.00 0.00 82 1005.8
20260906120046 17 74 0.0 0.0 0.00 0.00 0.00 82 1005.6
20260906114548 17 74 0.0 0.0 0.00 0.00 0.00 82 1005.7
20260906113037 18 74 0.0 0.0 0.00 0.00 0.00 80 1005.6
20260906111539 18 74 0.0 0.0 0.00 0.00 0.00 80 1005.5
20260906110036 18 74 0.0 6.4 0.00 0.00 0.00 78 1005.4
20260906104535 18 74 0.0 4.8 0.00 0.00 0.00 78 1005.4
20260906103029 18 74 0.0 1.6 0.00 0.00 0.00 77 1005.5
20260906101528 19 73 0.0 1.6 0.00 0.00 0.00 76 1005.4
20260906100032 19 75 0.0 1.6 0.00 0.00 0.00 76 1005.4
20260906094550 20 13 0.0 0.0 0.00 0.00 0.00 76 1005.3
20260906093039 20 5 0.0 0.0 0.00 0.00 0.00 74 1005.1
20260906091520 20 5 0.0 0.0 0.00 0.00 0.00 73 1004.7
20260906090024 20 5 0.0 0.0 0.00 0.00 0.00 72 1004.7
20260906084520 20 5 0.0 0.0 0.00 0.00 0.00 71 1004.9
20260906083023 20 5 0.0 0.0 0.00 0.00 0.00 70 1004.7
20260906081516 20 5 0.0 0.0 0.00 0.00 0.00 70 1004.8
20260906080016 20 5 0.0 0.0 0.00 0.00 0.00 69 1004.8
20260906074517 20 5 0.0 3.2 0.00 0.00 0.00 68 1004.7
20260906073019 20 5 0.0 0.0 0.00 0.00 0.00 67 1004.8
20260906071511 20 5 0.0 6.4 0.00 0.00 0.00 68 1004.7
20260906070011 21 9 0.0 6.4 0.00 0.00 0.00 68 1004.6
20260906064508 21 5 0.0 8.0 0.00 0.00 0.00 65 1004.5
20260906063005 21 360 0.0 4.8 0.00 0.00 0.00 63 1004.9
20260906061503 21 5 0.0 1.6 0.00 0.00 0.00 62 1005.0
20260906054609 22 360 0.0 6.4 0.00 0.00 0.00 59 1004.6
20260906053100 22 355 0.0 6.4 0.00 0.00 0.00 55 1004.7
20260906051605 23 16 0.0 9.7 0.00 0.00 0.00 51 1004.3
20260906050105 23 5 0.0 9.7 0.00 0.00 0.00 46 1004.2
20260906044601 23 68 0.0 6.4 0.00 0.00 0.00 44 1004.3
20260906043055 23 14 0.0 3.2 0.00 0.00 0.00 43 1003.8
20260906041555 24 5 0.0 0.0 0.00 0.00 0.00 40 1003.7
20260906034554 25 5 0.0 0.0 0.00 0.00 0.00 37 1003.5
20260906033053 25 360 0.0 3.2 0.00 0.00 0.00 36 1003.4
20260906031552 25 350 0.0 1.6 0.00 0.00 0.00 34 1003.2
20260906030052 26 346 0.0 8.0 0.00 0.00 0.00 34 1002.9
20260906024557 26 342 0.0 4.8 0.00 0.00 0.00 33 1002.7
20260906023051 26 342 0.0 8.0 0.00 0.00 0.00 33 1002.7
20260906021551 27 341 0.0 1.6 0.00 0.00 0.00 32 1002.7
20260906020051 27 5 0.0 3.2 0.00 0.00 0.00 31 1002.3
20260906014625 28 11 0.0 14.5 0.00 0.00 0.00 30 1002.1
20260906013057 29 14 12.9 24.1 0.00 0.00 0.00 29 1002.2
20260906011548 30 345 9.7 20.9 0.00 0.00 0.00 26 1002.0
20260906010051 31 291 1.6 16.1 0.00 0.00 0.00 24 1001.9
20260906004549 32 339 3.2 17.7 0.00 0.00 0.00 22 1001.7
20260906003047 33 5 0.0 0.0 0.00 0.00 0.00 20 1001.5
20260906001545 34 5 0.0 0.0 0.00 0.00 0.00 19 1001.4
20260906000046 36 5 0.0 3.2 0.00 0.00 0.00 18 1001.4
20260905234544 37 5 0.0 6.4 0.00 0.00 0.00 16 1001.3
20260905233047 37 5 0.0 9.7 0.00 0.00 0.00 16 1001.2
20260905231544 37 21 0.0 0.0 0.00 0.00 0.00 16 1000.9
20260905230044 37 22 0.0 1.6 0.00 0.00 0.00 16 1000.8
20260905224543 38 5 0.0 0.0 0.00 0.00 0.00 14 1000.7
20260905223041 39 11 0.0 0.0 0.00 0.00 0.00 14 1000.7
20260905221558 38 5 0.0 6.4 0.00 0.00 0.00 14 1000.9
20260905220037 38 74 0.0 0.0 0.00 0.00 0.00 14 1001.1
20260905214533 38 96 0.0 6.4 0.00 0.00 0.00 15 1001.3